FENGYUN 1C DEB, 31183

Orbit data source: Space-Track

FENGYUN 1C DEB, 31183 is space debris in SSO originally from a launch on Mon, 10 May 1999 UTC launched from the Taiyaun Space Center, China (TSC). Fengyun 1C debris stems from the Chinese weather satellite Fengyun-1C, which was intentionally destroyed by a Chinese anti-satellite missile in 2007. This event dramatically increased the amount of space debris, with thousands of trackable fragments posing hazards to satellites and human spaceflight. The Fengyun 1C debris cloud has become a focal point in discussions about space sustainability and the need for international regulations to prevent the creation of new debris.

Loading next visibility...
Identifier
31183, 1999-025BJM
Orbit
SSO
Country
Flag of CNCN / PRC
Related business
Manufacturer
Unknown
Mission
Spacecraft
Bus & Motor
Unknown
Mass
Unknown
Launch date (UTC)
1999-05-10 (27 years ago)
Launch vehicle
Unknown
Launch site
Taiyaun Space Center, China (TSC)
Object type
Payload
Rocket body
Debris
Shape & HBR
Unknown shape, 0.1 m
Radar Cross Section
Medium (>0.1 m² and <1 m²)

Expand to show TLE details & history
Last TLE update: 1 day ago

TLE from 1 day ago
0 FENGYUN 1C DEB
1 31183U 99025BJM 26255.80674441  .00002898  00000-0  70861-3 0  9997
2 31183  99.0481 265.3993 0045610   7.0673 168.0011 14.52796038 14462
Epoch: 2026-09-12T19:21Z
TLE epoch observation values (Epoch: 2026-09-12T19:21:42.717Z)
Latitude
4.67505°
Longitude
163.90303°
Altitude
750.658 km
Speed
7.463 km/s
True Right ascension
05h 44m 33s
True Declination
4° 38' 50"
Sunlit
Object was in daylight at epoch
Visualization orbit readout
Latitude
Unknown
Longitude
Unknown
Altitude
Unknown
Speed
Unknown
Apparent Right ascension
Unknown
Apparent Declination
Unknown
Sunlit
N/A
Visualization observer readout
Local Sidereal Time
12:37:27
Azimuth
Unknown
Elevation
Unknown
Doppler factor
Unknown
Orbital elements
Apogee altitude
746.008 km
Perigee altitude
681.317 km
Semi-major axis
7,091.8 km
Eccentricity
0.00456
Inclination
99.0481°
RAAN
265.3993°
Arg. of periapsis
7.0673°
True anomaly
168.10915°
Mean anomaly
168.0011°
Eccentric anomaly
168.05519°
Mean motion
3.6342 °/min
Orbital period
99.06 mins
BSTAR
0.00070861
Loading maneuver chart data...
Computing Atmospheric mass density...
Loading historical data...
Loading historical data...
Loading historical data...
Loading historical data...
Loading historical data...
Loading historical data...
Loading historical data...

Documentation

Showing up to 5 results
|